星链-1437 (STARLINK-1437 )

导读 | 豆包AI

STARLINK-1437是美国太空探索技术公司(SpaceX)星链星座的卫星,于2020年6月4日发射,属于星链计划组网卫星,旨在为全球提供低延迟、高速率的卫星互联网覆盖服务。星链通过低轨卫星组网,解决地面网络难以覆盖区域的联网需求,该卫星是星链早期组网阶段部署的卫星之一。

基本信息
目录编号:
45714
目录名称:
STARLINK-1437
国际标识:
2020-035BK
轨道中心:
EARTH
卫星名称:
星链-1437
卫星全名:
星链-1437 (STARLINK-1437 )
卫星状态:
已陨落 最后检测时间 2024-08-21
发射日期:
2020-06-04 UTC
国别 :
美国 (US)
星等 :
--
轨道信息
数据来源 国际轨道数据
星历时间: 2024-08-21T22:13:51+0800
轨道信息已过期569天
半长轴: 6553.573km
偏心率: 0.0010502
轨道倾角: 53.027°
近地点辐角 317.603°
升交点赤经 332.167°
平近点角 131.936°
近地点: 168.555km
远地点: 182.321km
周期: 87.999分钟
每日圈数: 16.363853
详细信息
固有亮度:
5
最大亮度:
2.5
卫星平台:
Starlink V1.0
覆盖范围:
全球
运营商:
太空探索技术公司
运营商所在国:
美国
制造商(研发单位):
太空探索技术公司
制造商所在国:
美国
使用方式:
暂无
卫星简介
星链(Starlink)计划是由太空探索技术公司(SpaceX)提出的一个巨型低轨卫星互联网星座项目,计划在2019年至2024年间在太空搭建由约1.2万颗卫星组成的“星链”网络,其中1584颗将部署在地球上空550千米处的近地轨道,并从2020年开始工作。该卫星仍在工作。